GW2328 Weather Reports


time (UTC)temp
F
wind
direction
speed
knots
gust
knots
rain 1hr
in
rain 24hr
in
rain mn
in
humidity
%
barometer
mb
20260504003358 60 146 0.0 0.0 0.00 0.00 0.00 48 1018.1
20260504002855 60 146 0.0 0.0 0.00 0.00 0.00 48 1018.1
20260504002352 60 145 0.0 0.0 0.00 0.00 0.00 47 1017.8
20260504001849 61 145 0.0 0.0 0.00 0.00 0.00 47 1017.7
20260504001347 61 148 0.0 0.9 0.00 0.00 0.00 46 1017.7
20260504000843 61 153 0.0 0.0 0.00 0.00 0.00 46 1017.8
20260504000340 62 147 0.0 1.7 0.00 0.00 0.00 46 1017.3
20260503235838 62 163 0.0 0.9 0.00 0.00 0.00 45 1017.4
20260503235335 62 152 0.0 1.7 0.00 0.00 0.00 45 1017.4
20260503234833 62 157 0.0 0.9 0.00 0.00 0.00 44 1017.6
20260503234330 63 199 1.7 2.6 0.00 0.00 0.00 44 1017.3
20260503233828 63 201 2.6 2.6 0.00 0.00 0.00 44 1017.3
20260503233324 63 143 0.0 0.9 0.00 0.00 0.00 44 1017.7
20260503232820 63 152 0.0 2.6 0.00 0.00 0.00 43 1017.5
20260503232318 63 154 0.9 1.7 0.00 0.00 0.00 43 1017.6
20260503231816 64 161 0.9 2.6 0.00 0.00 0.00 42 1017.4
20260503231312 64 261 1.7 2.6 0.00 0.00 0.00 41 1017.2
20260503230808 64 166 1.7 2.6 0.00 0.00 0.00 41 1017.5
20260503230306 64 126 0.9 2.6 0.00 0.00 0.00 41 1017.5
20260503225803 64 307 1.7 2.6 0.00 0.00 0.00 41 1017.7
20260503225258 64 156 0.9 2.6 0.00 0.00 0.00 40 1017.5
20260503224755 64 285 1.7 2.6 0.00 0.00 0.00 40 1017.9
20260503224253 65 137 0.9 2.6 0.00 0.00 0.00 40 1017.9
20260503223750 64 153 1.7 1.7 0.00 0.00 0.00 40 1017.9
20260503223248 64 148 2.6 5.2 0.00 0.00 0.00 39 1018.2
20260503222743 65 211 2.6 4.3 0.00 0.00 0.00 39 1018.3
20260503222242 64 169 1.7 1.7 0.00 0.00 0.00 40 1018.4
20260503221740 64 138 0.9 1.7 0.00 0.00 0.00 39 1018.5
20260503221238 64 104 0.9 8.7 0.00 0.00 0.00 38 1018.5
20260503220734 64 162 0.9 4.3 0.00 0.00 0.00 38 1018.5
20260503220231 65 179 0.0 7.0 0.00 0.00 0.00 37 1018.7
20260503215727 64 175 0.9 1.7 0.00 0.00 0.00 37 1018.8
20260503215225 65 218 0.9 2.6 0.00 0.00 0.00 36 1018.9
20260503214723 66 150 0.9 2.6 0.00 0.00 0.00 36 1018.8
20260503214219 67 156 1.7 2.6 0.00 0.00 0.00 35 1019.1
20260503213717 67 150 0.0 2.6 0.00 0.00 0.00 35 1019.0
20260503213214 66 157 0.0 2.6 0.00 0.00 0.00 35 1019.7
20260503212711 67 140 3.5 5.2 0.00 0.00 0.00 35 1019.4
20260503212209 67 224 1.7 7.0 0.00 0.00 0.00 34 1019.5
20260503211706 68 220 1.7 5.2 0.00 0.00 0.00 34 1019.3
20260503211202 68 114 1.7 6.1 0.00 0.00 0.00 35 1019.6
20260503210658 68 184 0.9 2.6 0.00 0.00 0.00 35 1019.7
20260503210155 67 138 0.9 2.6 0.00 0.00 0.00 35 1019.8
20260503205650 67 147 1.7 2.6 0.00 0.00 0.00 35 1019.3
20260503205147 68 211 1.7 4.3 0.00 0.00 0.00 34 1019.3
20260503204643 68 166 0.9 7.0 0.00 0.00 0.00 34 1019.4
20260503204141 67 173 1.7 2.6 0.00 0.00 0.00 34 1019.6
20260503203638 67 203 2.6 5.2 0.00 0.00 0.00 34 1019.6
20260503203136 67 167 0.0 2.6 0.00 0.00 0.00 34 1019.6
20260503202633 67 223 4.3 7.0 0.00 0.00 0.00 34 1019.8
20260503202131 67 148 0.9 4.3 0.00 0.00 0.00 34 1019.9
20260503201629 67 196 3.5 5.2 0.00 0.00 0.00 34 1020.0
20260503201126 67 245 0.9 2.6 0.00 0.00 0.00 34 1020.2
20260503200622 67 143 3.5 7.0 0.00 0.00 0.00 34 1020.2
20260503200118 66 167 1.7 1.7 0.00 0.00 0.00 34 1020.2
20260503195616 66 237 2.6 5.2 0.00 0.00 0.00 34 1020.5
20260503195112 66 233 2.6 7.8 0.00 0.00 0.00 34 1020.2
20260503194609 66 143 0.9 5.2 0.00 0.00 0.00 34 1020.7
20260503194104 66 180 1.7 7.8 0.00 0.00 0.00 34 1020.8
20260503193601 66 131 1.7 5.2 0.00 0.00 0.00 34 1020.7
20260503193056 66 322 3.5 6.1 0.00 0.00 0.00 34 1021.0
20260503192553 66 129 2.6 4.3 0.00 0.00 0.00 34 1021.3
20260503192048 66 185 1.7 4.3 0.00 0.00 0.00 34 1021.5
20260503191540 66 226 3.5 5.2 0.00 0.00 0.00 34 1021.6
20260503191037 66 151 0.9 4.3 0.00 0.00 0.00 34 1021.5
20260503190533 65 151 0.0 2.6 0.00 0.00 0.00 35 1021.1
20260503190030 65 111 2.6 5.2 0.00 0.00 0.00 34 1021.8
20260503185526 66 196 2.6 6.1 0.00 0.00 0.00 34 1022.1
20260503185021 66 159 1.7 2.6 0.00 0.00 0.00 35 1022.1
20260503184518 66 180 1.7 1.7 0.00 0.00 0.00 35 1021.9
20260503184014 65 173 1.7 2.6 0.00 0.00 0.00 36 1022.2
20260503183511 64 239 2.6 4.3 0.00 0.00 0.00 36 1022.3
20260503183008 64 140 1.7 5.2 0.00 0.00 0.00 35 1022.4
20260503182507 65 203 2.6 4.3 0.00 0.00 0.00 35 1022.4
20260503182005 64 231 2.6 4.3 0.00 0.00 0.00 35 1022.5
20260503181500 64 157 0.0 2.6 0.00 0.00 0.00 36 1022.3
20260503180956 63 85 0.9 4.3 0.00 0.00 0.00 36 1022.8
20260503180454 64 288 3.5 5.2 0.00 0.00 0.00 35 1022.5
20260503175951 64 140 2.6 5.2 0.00 0.00 0.00 35 1022.8
20260503175449 64 201 1.7 5.2 0.00 0.00 0.00 36 1022.8
20260503174945 64 148 0.9 2.6 0.00 0.00 0.00 36 1022.8
20260503174443 63 137 0.9 1.7 0.00 0.00 0.00 36 1022.6
20260503173938 63 135 4.3 5.2 0.00 0.00 0.00 36 1023.0
20260503173434 63 143 0.9 4.3 0.00 0.00 0.00 35 1023.0
20260503172931 64 165 0.0 4.3 0.00 0.00 0.00 35 1022.9
20260503172429 63 132 2.6 6.1 0.00 0.00 0.00 35 1023.3
20260503171925 63 191 0.9 2.6 0.00 0.00 0.00 35 1023.3
20260503171422 64 136 1.7 5.2 0.00 0.00 0.00 35 1023.6
20260503170919 64 174 1.7 2.6 0.00 0.00 0.00 36 1023.4
20260503170415 63 150 0.0 2.6 0.00 0.00 0.00 36 1023.6
20260503150807 57 155 2.6 5.2 0.00 0.00 0.00 56 1025.2
20260503150303 57 257 2.6 5.2 0.00 0.00 0.00 58 1025.1
20260503140228 50 162 0.9 1.7 0.00 0.00 0.00 86 1024.9
20260503131157 43 154 0.0 0.0 0.00 0.00 0.00 94 1025.5
20260503130655 42 157 0.0 0.0 0.00 0.00 0.00 94 1025.3
20260503130152 41 151 0.0 0.0 0.00 0.00 0.00 94 1025.3
20260503120118 33 143 0.0 0.0 0.00 0.00 0.00 93 1025.2
20260503110545 32 143 0.0 0.0 0.00 0.00 0.00 91 1024.9
20260503090432 33 143 0.0 0.0 0.00 0.00 0.00 90 1024.5
20260503081359 33 143 0.0 0.0 0.00 0.00 0.00 89 1024.0
20260503080855 33 143 0.0 0.0 0.00 0.00 0.00 89 1024.1
20260503080352 33 143 0.0 0.0 0.00 0.00 0.00 89 1024.1
20260503072829 34 143 0.0 0.0 0.00 0.00 0.00 88 1024.0
20260503072326 35 143 0.0 0.0 0.00 0.00 0.00 88 1023.9
20260503071822 35 143 0.0 0.0 0.00 0.00 0.00 87 1023.9
20260503071320 35 143 0.0 0.0 0.00 0.00 0.00 87 1024.0
20260503070815 35 143 0.0 0.0 0.00 0.00 0.00 87 1024.2
20260503070314 35 143 0.0 0.0 0.00 0.00 0.00 87 1024.1
20260503060233 36 143 0.0 0.0 0.00 0.00 0.00 84 1024.2
20260503054719 37 143 0.0 0.0 0.00 0.00 0.00 84 1024.4
20260503054217 37 143 0.0 0.0 0.00 0.00 0.00 83 1024.4
20260503053715 37 143 0.0 0.0 0.00 0.00 0.00 83 1024.4
20260503053213 37 143 0.0 0.0 0.00 0.00 0.00 83 1024.5
20260503052709 37 143 0.0 0.0 0.00 0.00 0.00 82 1024.4
20260503052206 37 143 0.0 0.0 0.00 0.00 0.00 82 1024.3
20260503051701 37 143 0.0 0.0 0.00 0.00 0.00 82 1024.3
20260503051159 37 143 0.0 0.0 0.00 0.00 0.00 81 1024.3
20260503050655 38 143 0.0 0.0 0.00 0.00 0.00 81 1024.1
20260503050152 38 143 0.0 0.0 0.00 0.00 0.00 80 1024.4
20260503045649 38 143 0.0 0.0 0.00 0.00 0.00 80 1024.2
20260503045146 38 143 0.0 0.0 0.00 0.00 0.00 80 1024.4
20260503044643 38 143 0.0 0.0 0.00 0.00 0.00 79 1024.2
20260503044141 38 143 0.0 0.0 0.00 0.00 0.00 79 1024.2
20260503043637 38 143 0.0 0.0 0.00 0.00 0.00 79 1024.2
20260503043134 38 143 0.0 0.0 0.00 0.00 0.00 78 1024.3
20260503042630 39 143 0.0 0.0 0.00 0.00 0.00 78 1024.1
20260503042127 39 143 0.0 0.0 0.00 0.00 0.00 77 1024.3
20260503041623 39 143 0.0 0.0 0.00 0.00 0.00 77 1024.2
20260503041121 39 143 0.0 0.0 0.00 0.00 0.00 77 1024.1
20260503040618 39 143 0.0 0.0 0.00 0.00 0.00 76 1024.0
20260503040116 39 143 0.0 0.0 0.00 0.00 0.00 75 1023.9
20260503035612 39 143 0.0 0.0 0.00 0.00 0.00 75 1024.1
20260503035110 40 143 0.0 0.0 0.00 0.00 0.00 74 1024.0
20260503034607 40 143 0.0 0.0 0.00 0.00 0.00 74 1024.1
20260503034104 40 143 0.0 0.0 0.00 0.00 0.00 73 1024.1
20260503033601 40 143 0.0 0.0 0.00 0.00 0.00 73 1024.3
20260503033059 41 143 0.0 0.0 0.00 0.00 0.00 72 1024.1
20260503032557 41 143 0.0 0.0 0.00 0.00 0.00 72 1024.2
20260503032055 41 143 0.0 0.0 0.00 0.00 0.00 71 1024.1
20260503031552 42 143 0.0 0.0 0.00 0.00 0.00 71 1024.1
20260503031050 41 143 0.0 0.0 0.00 0.00 0.00 70 1023.8
20260503030545 42 143 0.0 0.0 0.00 0.00 0.00 69 1024.1
20260503030043 42 143 0.0 0.0 0.00 0.00 0.00 68 1024.0
20260503025539 42 143 0.0 0.0 0.00 0.00 0.00 68 1023.9
20260503025037 42 143 0.0 0.0 0.00 0.00 0.00 67 1024.1
20260503024533 42 143 0.0 0.0 0.00 0.00 0.00 67 1024.3
20260503024031 43 143 0.0 0.0 0.00 0.00 0.00 66 1024.0
20260503023527 43 143 0.0 0.0 0.00 0.00 0.00 66 1023.7
20260503023025 44 143 0.0 0.0 0.00 0.00 0.00 65 1023.6
20260503022521 44 143 0.0 0.0 0.00 0.00 0.00 65 1023.7
20260503022015 44 143 0.0 0.0 0.00 0.00 0.00 64 1023.7
20260503021512 44 143 0.0 0.0 0.00 0.00 0.00 63 1023.6
20260503021009 45 143 0.0 0.0 0.00 0.00 0.00 63 1023.6
20260503020507 45 143 0.0 0.0 0.00 0.00 0.00 62 1023.4
20260503020003 46 143 0.0 0.0 0.00 0.00 0.00 61 1023.3
20260503015500 46 143 0.0 0.0 0.00 0.00 0.00 61 1023.4
20260503014956 47 143 0.0 0.0 0.00 0.00 0.00 60 1023.0
20260503014453 47 143 0.0 0.0 0.00 0.00 0.00 59 1022.9
20260503013951 48 143 0.0 0.0 0.00 0.00 0.00 58 1022.9
20260503013448 48 143 0.0 0.0 0.00 0.00 0.00 57 1022.9
20260503012945 48 143 0.0 0.0 0.00 0.00 0.00 56 1022.8
20260503012443 49 143 0.0 0.0 0.00 0.00 0.00 55 1023.0
20260503011939 49 143 0.0 0.0 0.00 0.00 0.00 53 1022.7
20260503011436 50 143 0.0 0.0 0.00 0.00 0.00 52 1022.7
20260503010933 50 143 0.0 0.0 0.00 0.00 0.00 51 1022.5
20260503010430 50 143 0.0 0.0 0.00 0.00 0.00 50 1022.5
20260503005927 50 143 0.0 0.0 0.00 0.00 0.00 49 1022.3
20260503005424 51 143 0.0 0.0 0.00 0.00 0.00 49 1022.0
20260503004921 51 143 0.0 0.0 0.00 0.00 0.00 49 1022.4
20260503004418 51 151 0.0 0.9 0.00 0.00 0.00 48 1022.2
20260503003915 52 145 0.9 0.9 0.00 0.00 0.00 48 1022.4